CW0003 Weather Reports


Display with metric or nautical units.
time (UTC)temp
F
wind
direction
speed
MPH
gust
MPH
rain 1hr
in
rain 24hr
in
rain mn
in
humidity
%
barometer
mb
20190619070356 65 0.0 0.0 0.00 0.10 0.00 94 1010.1
20190619064617 65 0.0 0.0 0.00 0.10 0.00 94 1010.2
20190619063157 65 0.0 0.0 0.00 0.10 0.00 95 1010.3
20190619061558 65 0.0 0.0 0.00 0.10 0.00 94 1010.5
20190619060114 65 0.0 0.0 0.00 0.10 0.00 94 1010.4
20190619054559 65 0.0 0.0 0.00 0.10 0.00 94 1010.5
20190619053100 65 0.0 0.0 0.00 0.10 0.00 94 1010.5
20190619051602 65 0.0 0.0 0.00 0.10 0.00 94 1010.4
20190619050048 66 0.0 0.0 0.00 0.10 0.00 94 1010.4
20190619044539 66 0.0 0.0 0.00 0.10 0.00 94 1010.5
20190619043304 66 0.0 0.0 0.00 0.10 0.00 94 1010.5
20190619041640 66 0.0 0.0 0.00 0.10 0.00 94 1010.7
20190619040101 66 0.0 0.0 0.00 0.10 0.00 94 1010.8
20190619034652 66 0.0 0.0 0.00 0.10 0.10 94 1010.9
20190619033055 66 0.0 0.0 0.00 0.10 0.10 94 1010.9
20190619031554 66 0.0 0.0 0.00 0.10 0.10 94 1010.9
20190619030046 66 0.0 0.0 0.00 0.10 0.10 93 1011.0
20190619024625 66 0.0 0.0 0.00 0.10 0.10 93 1011.0
20190619023016 66 0.0 0.0 0.00 0.10 0.10 93 1011.0
20190619021503 66 0.0 0.0 0.00 0.10 0.10 93 1011.0
20190619020208 66 0.0 0.0 0.00 0.10 0.10 93 1011.0
20190619014656 66 0.0 0.0 0.00 0.10 0.10 92 1010.9
20190619013138 66 0.0 0.0 0.00 0.10 0.10 92 1010.8
20190619011610 66 0.0 0.0 0.00 0.10 0.10 92 1010.9
20190619010006 66 0.0 0.0 0.00 0.10 0.10 92 1010.9
20190619004716 66 0.0 0.0 0.00 0.10 0.10 92 1010.8
20190619003112 66 0.0 0.0 0.00 0.10 0.10 92 1011.1
20190619001555 66 0.0 0.0 0.00 0.10 0.10 92 1011.0
20190618234611 67 0.0 0.0 0.00 0.10 0.10 93 1011.1
20190618233144 67 0.0 0.0 0.00 0.10 0.10 92 1011.2
20190618231619 67 0.0 0.0 0.00 0.10 0.10 92 1011.2
20190618230028 67 0.0 0.0 0.00 0.10 0.10 92 1011.2
20190618224516 67 0.0 0.0 0.00 0.10 0.10 92 1011.2
20190618223004 67 0.0 0.0 0.00 0.10 0.10 92 1011.2
20190618221632 68 0.0 0.0 0.00 0.10 0.10 92 1011.3
20190618220131 68 360 0.0 4.0 0.01 0.10 0.10 92 1011.1
20190618214552 68 360 1.0 5.0 0.01 0.10 0.10 92 1011.4
20190618213037 68 360 1.0 3.0 0.01 0.10 0.10 91 1011.1
20190618211609 68 360 0.0 4.0 0.02 0.10 0.10 92 1011.8
20190618210041 68 5 0.0 1.0 0.01 0.09 0.09 92 1011.8
20190618204524 68 5 0.0 0.0 0.02 0.09 0.09 90 1011.7
20190618203141 68 5 0.0 3.0 0.03 0.09 0.09 89 1011.5
20190618201613 68 5 0.0 4.0 0.04 0.08 0.08 89 1011.6
20190618200136 68 5 1.0 5.0 0.06 0.08 0.08 88 1011.6
20190618194621 69 360 2.0 5.0 0.06 0.07 0.07 86 1011.8
20190618193116 69 269 1.0 7.0 0.05 0.06 0.06 86 1012.0
20190618191605 70 19 2.0 6.0 0.04 0.04 0.04 86 1012.1
20190618190045 70 254 1.0 2.0 0.02 0.02 0.02 86 1012.1
20190618184519 71 280 0.0 1.0 0.01 0.01 0.01 85 1012.0
20190618183109 71 277 0.0 2.0 0.00 0.00 0.00 86 1012.2
20190618181557 71 274 0.0 2.0 0.00 0.00 0.00 86 1012.3
20190618180051 71 257 0.0 4.0 0.00 0.00 0.00 84 1012.6
20190618174638 71 275 0.0 0.0 0.00 0.00 0.00 81 1012.7
20190618173133 72 207 0.0 0.0 0.00 0.00 0.00 81 1012.7
20190618171743 72 275 0.0 0.0 0.00 0.00 0.00 80 1012.8
20190618170133 72 208 0.0 1.0 0.00 0.00 0.00 81 1012.9
20190618164632 72 309 0.0 2.0 0.00 0.00 0.00 78 1013.0
20190618163133 72 360 0.0 4.0 0.00 0.00 0.00 83 1013.2
20190618161544 72 206 1.0 3.0 0.00 0.00 0.00 83 1013.2
20190618160011 71 269 1.0 3.0 0.00 0.00 0.00 81 1013.2
20190618154506 72 360 0.0 5.0 0.00 0.00 0.00 83 1013.1
20190618153005 72 269 1.0 3.0 0.00 0.00 0.00 80 1013.2
20190618151504 72 289 1.0 4.0 0.00 0.00 0.00 80 1013.3
20190618150200 72 296 1.0 3.0 0.00 0.00 0.00 82 1013.5
20190618144652 71 255 1.0 5.0 0.00 0.00 0.00 84 1013.6
20190618143133 70 259 0.0 3.0 0.00 0.00 0.00 86 1013.8
20190618141633 69 227 0.0 2.0 0.00 0.00 0.00 84 1013.7
20190618140233 68 269 0.0 0.0 0.00 0.00 0.00 85 1013.7
20190618134619 68 280 0.0 2.0 0.00 0.00 0.00 86 1013.9
20190618133132 68 255 0.0 2.0 0.00 0.00 0.00 86 1014.0
20190618131605 67 11 0.0 2.0 0.00 0.00 0.00 87 1013.8
20190618130155 67 17 0.0 3.0 0.00 0.00 0.00 86 1013.7
20190618124552 67 16 0.0 2.0 0.00 0.00 0.00 88 1013.7
20190618123139 67 17 0.0 4.0 0.00 0.00 0.00 88 1013.5
20190618121636 67 17 0.0 4.0 0.00 0.00 0.00 89 1013.6
20190618120123 66 46 0.0 3.0 0.00 0.00 0.00 90 1013.7
20190618114649 65 50 0.0 4.0 0.00 0.00 0.00 93 1013.7
20190618113140 65 36 3.0 6.0 0.00 0.00 0.00 96 1013.6
20190618111550 65 360 2.0 5.0 0.00 0.00 0.00 97 1013.6
20190618110056 61 9 0.0 2.0 0.00 0.00 0.00 94 1013.5
20190618104624 60 9 0.0 0.0 0.00 0.00 0.00 93 1013.4
20190618103027 60 0.0 0.0 0.00 0.00 0.00 93 1013.4
20190618101518 59 0.0 0.0 0.00 0.00 0.00 92 1013.5
20190618100206 60 0.0 0.0 0.00 0.00 0.00 92 1013.4
20190618094701 60 0.0 0.0 0.00 0.00 0.00 92 1013.4
20190618093132 60 0.0 0.0 0.00 0.00 0.00 92 1013.4
20190618091616 60 0.0 0.0 0.00 0.00 0.00 92 1013.3
20190618090123 60 0.0 0.0 0.00 0.00 0.00 92 1013.2
20190618084604 60 0.0 0.0 0.00 0.00 0.00 92 1013.2
20190618083038 60 0.0 0.0 0.00 0.00 0.00 92 1013.3
20190618081549 60 0.0 0.0 0.00 0.00 0.00 92 1013.2
20190618080024 60 0.0 0.0 0.00 0.00 0.00 91 1013.0
20190618074532 60 0.0 0.0 0.00 0.00 0.00 91 1013.1
20190618071651 60 0.0 0.0 0.00 0.00 0.00 91 1013.0